Regional Weather Roundup
Issued by NWS

Home | Current Version | Previous Version | Graphics & Text | Print | Product List | Glossary On
Versions: 1 2 3 4 5 6 7 8 9 10 11 12 13 14 15 16 17 18 19 20 21 22 23 24 25 26 27 28 29 30 31 32 33 34 35 36 37 38 39 40 41 42 43 44 45 46 47 48 49 50
980
ASUS43 KTOP 221359
RWRKS

WEATHER ROUNDUP FOR KANSAS
NATIONAL WEATHER SERVICE GOODLAND KS
800 AM CST THU FEB 22 2018

NOTE:  "FAIR" INDICATES FEW OR NO CLOUDS BELOW 12,000 FEET WITH NO
SIGNIFICANT WEATHER AND/OR OBSTRUCTIONS TO VISIBILITY.

KSZ001>006-013>018-027>032-041>047-221500-
NORTHWEST KANSAS

CITY           SKY/WX    TMP DP  RH WIND       PRES   REMARKS
GOODLAND       CLOUDY    18   8  65 S15       30.16F WCI   4
HAYS           CLOUDY    21  20  96 SE5       30.35R FOG
HILL CITY      CLOUDY    21  20  96 E5        30.30S FOG
RUSSELL        CLOUDY    24  23  96 E6        30.32R FOG
$$

KSZ061>065-074>080-084>089-221500-
SOUTHWEST KANSAS

CITY           SKY/WX    TMP DP  RH WIND       PRES   REMARKS
DODGE CITY     CLOUDY    21  18  88 SE7       30.27R FOG
GARDEN CITY    CLOUDY    19  15  84 SE6       30.24R
GREAT BEND     MIX PCPN  24  22  91 E7        30.32F FOG
LIBERAL        CLOUDY    20  16  84 E7        30.23F
$$

KSZ066>073-081>083-090>101-221500-
SOUTHEAST KANSAS

CITY           SKY/WX    TMP DP  RH WIND       PRES   REMARKS
CHANUTE        CLOUDY    30  29  96 E9        30.32F
COFFEYVILLE    CLOUDY    32  31  96 NE3       30.35R
HUTCHINSON     CLOUDY    27  26  96 E5        30.34R FOG
MEDICINE LODGE   N/A     26  25  96 CALM      30.33S
NEWTON         CLOUDY    26  25  96 E5        30.35R FOG
PARSONS        CLOUDY    31  31 100 VRB5      30.35S
WICHITA INTL   FRZ DRZL  28  27  96 CALM      30.34R FOG
WICHITA JABRA  CLOUDY    27  27 100 NE5       30.34R FOG
WICHITA MCCONL FRZ DRZL  28  27  98 CALM      30.34  FOG
WINFIELD       CLOUDY    29  29 100 CALM      30.35R FOG
$$

KSZ007>012-019>026-033>040-048>060-102>105-221500-
NORTHEAST KANSAS

CITY           SKY/WX    TMP DP  RH WIND       PRES   REMARKS
CONCORDIA      CLOUDY    24  23  96 E5        30.34R
EMPORIA        CLOUDY    27  26  96 E10       30.33S FOG     WCI  17
LAWRENCE       CLOUDY    28  27  96 E9        30.38F FOG
MANHATTAN      CLOUDY    28  25  88 E7        30.35S
OLATHE IND     CLOUDY    27  27 100 E9        30.37F FOG
OLATHE EXE     CLOUDY    26  26 100 E8        30.37F FOG
SALINA         CLOUDY    28  27  96 CALM      30.37R FOG
TOPEKA BILLARD CLOUDY    28  27  96 E12       30.37F FOG     WCI  18
TOPEKA FORBES  CLOUDY    28  26  92 E9        30.35F FOG
$$




USA.gov is the U.S. government's official web portal to all federal, state and local government web resources and services.